TimeEDT,TemperatureF,Dew PointF,Humidity,Sea Level PressureIn,VisibilityMPH,Wind Direction,Wind SpeedMPH,Gust SpeedMPH,PrecipitationIn,Events,Conditions,WindDirDegrees,DateUTC
12:53 AM,42.1,24.1,49,30.28,10.0,North,5.8,-,N/A,,Clear,350,2013-03-29 04:53:00
1:53 AM,42.1,24.1,49,30.29,10.0,Calm,Calm,-,N/A,,Clear,0,2013-03-29 05:53:00
2:53 AM,37.9,24.1,57,30.28,10.0,NW,3.5,-,N/A,,Clear,320,2013-03-29 06:53:00
3:53 AM,34.0,28.0,79,30.27,10.0,WNW,3.5,-,N/A,,Clear,290,2013-03-29 07:53:00
4:53 AM,35.1,26.1,70,30.27,10.0,Calm,Calm,-,N/A,,Clear,0,2013-03-29 08:53:00
5:53 AM,32.0,26.1,79,30.29,10.0,WSW,5.8,-,N/A,,Clear,250,2013-03-29 09:53:00
6:53 AM,32.0,25.0,75,30.30,10.0,West,6.9,-,N/A,,Clear,270,2013-03-29 10:53:00
7:53 AM,37.0,26.1,65,30.32,10.0,West,5.8,-,N/A,,Clear,280,2013-03-29 11:53:00
8:53 AM,44.1,26.1,49,30.33,10.0,West,4.6,-,N/A,,Clear,270,2013-03-29 12:53:00
9:53 AM,48.9,24.1,38,30.33,10.0,WSW,4.6,-,N/A,,Clear,250,2013-03-29 13:53:00
10:53 AM,51.1,23.0,33,30.32,10.0,West,3.5,-,N/A,,Clear,270,2013-03-29 14:53:00
11:53 AM,55.9,21.9,27,30.31,10.0,NW,9.2,-,N/A,,Clear,310,2013-03-29 15:53:00
12:53 PM,57.0,19.9,24,30.28,10.0,Calm,Calm,-,N/A,,Clear,0,2013-03-29 16:53:00
1:53 PM,59.0,19.0,21,30.25,10.0,NW,8.1,18.4,N/A,,Clear,310,2013-03-29 17:53:00
2:53 PM,62.1,19.0,19,30.22,10.0,NW,8.1,-,N/A,,Clear,310,2013-03-29 18:53:00
3:53 PM,62.1,19.9,20,30.19,10.0,Variable,6.9,-,N/A,,Clear,0,2013-03-29 19:53:00
4:53 PM,62.1,18.0,18,30.17,10.0,West,11.5,-,N/A,,Clear,270,2013-03-29 20:53:00
5:53 PM,63.0,19.0,18,30.17,10.0,NW,5.8,-,N/A,,Clear,320,2013-03-29 21:53:00
6:53 PM,60.1,21.0,22,30.18,10.0,Variable,5.8,-,N/A,,Clear,0,2013-03-29 22:53:00
7:53 PM,57.9,24.1,27,30.19,10.0,West,5.8,-,N/A,,Scattered Clouds,260,2013-03-29 23:53:00
8:53 PM,57.0,25.0,29,30.20,10.0,Calm,Calm,-,N/A,,Partly Cloudy,0,2013-03-30 00:53:00
9:53 PM,52.0,28.9,41,30.20,10.0,Calm,Calm,-,N/A,,Partly Cloudy,0,2013-03-30 01:53:00
10:53 PM,50.0,32.0,50,30.21,10.0,SSW,3.5,-,N/A,,Mostly Cloudy,210,2013-03-30 02:53:00
11:53 PM,51.1,30.0,44,30.20,10.0,SSW,4.6,-,N/A,,Overcast,210,2013-03-30 03:53:00